CO3D 1

Last updated on Mon Sep 21 2026 00:02:46 GMT+0000 (Coordinated Universal Time)

1 64903U 25156E 26263.53180484 .00000817 00000+0 40867-4 0 9997 2 64903 97.4341 340.7530 0001304 99.2843 260.8539 15.20209996 64014
UTC large
Height (km)
Speed (km/s)
/
Latitude / Longitude
Inclination (degrees)
Orbital Period (minutes)
Azimuth
Elevation
Range (km)
Doppler Factor

Next 0 passes for location: London (51.5072 / 0.1276)

No passes found over London.
CO3D 1